Andrews, TX

6:32 AM CST on December 08, 2016 (GMT -0600)
Andrews

Weather History for KE11 - September, 2013

Change the Weather History Date:

Monday, September 23, 2013

  Actual Average (KMAF) Record (KMAF)
Temperature  
Mean Temperature 74 °F 72 °F  
Max Temperature 88 °F 85 °F 99 °F (1933)
Min Temperature 59 °F 60 °F 45 °F (1995)
Degree Days  
Heating Degree Days 0 1  
Month to date heating degree days 3  
Since 1 July heating degree days 3  
Cooling Degree Days 8 8  
Month to date cooling degree days 248  
Year to date cooling degree days 2132  
Growing Degree Days 24 (Base 50)    
Moisture  
Dew Point 42 °F    
Average Humidity 36    
Maximum Humidity 58    
Minimum Humidity 16    
Precipitation  
Precipitation 0.00 in 0.06 in 1.95 in (1980)
Month to date precipitation 1.46  
Year to date precipitation 11.18  
Sea Level Pressure  
Sea Level Pressure 29.86 in    
Wind  
Wind Speed 9 mph (WSW)    
Max Wind Speed 15 mph    
Max Gust Speed 18 mph    
Visibility 10 miles    
Events      
T = Trace of Precipitation, MM = Missing Value Source: NWS Daily Summary

Daily Weather History Graph

Daily Weather History Graph

Search for Another Location

Airport or City:

Trip Planner

Search our weather history database for the weather conditions in past years. The results will help you decide how hot, cold, wet, or windy it might be!

Date:

Astronomy

Sep. 23, 2013 Rise Set
Actual Time 7:39 AM CDT 7:45 PM CDT
Civil Twilight 7:14 AM CDT 8:09 PM CDT
Nautical Twilight 6:46 AM CDT 8:37 PM CDT
Astronomical Twilight 6:17 AM CDT 9:06 PM CDT
Moon 10:35 PM CDT (9/23) 11:44 AM CDT (9/23)
Length of Visible Light 12h 54m
Length of Day
12h 05m
Waning Gibbous, 81% of the Moon is Illuminated
Sep 23
Waning Gibbous
Sep 26
Last Quarter
Oct 4
New
Oct 11
First Quarter
Oct 18
Full

Hourly Weather History & Observations

Time (CDT) Temp. Dew Point Humidity Pressure Visibility Wind Dir Wind Speed Gust Speed Precip Events Conditions
12:15 AM 63.7 °F 44.6 °F 50% 29.84 in 10.0 mi SSE 10.4 mph - N/A   Clear
12:35 AM 64.8 °F 44.4 °F 48% 29.84 in 10.0 mi SSE 9.2 mph 16.1 mph N/A   Clear
12:55 AM 64.8 °F 43.9 °F 47% 29.84 in 10.0 mi South 10.4 mph - N/A   Clear
1:15 AM 64.8 °F 43.7 °F 46% 29.84 in 10.0 mi South 9.2 mph - N/A   Clear
1:35 AM 63.7 °F 43.9 °F 48% 29.83 in 10.0 mi South 9.2 mph - N/A   Clear
1:55 AM 63.0 °F 43.7 °F 49% 29.82 in 10.0 mi South 9.2 mph - N/A   Clear
2:15 AM 63.3 °F 43.7 °F 49% 29.84 in 10.0 mi South 10.4 mph - N/A   Clear
2:35 AM 63.7 °F 43.7 °F 48% 29.83 in 10.0 mi South 10.4 mph - N/A   Clear
2:55 AM 63.7 °F 43.7 °F 48% 29.83 in 10.0 mi South 9.2 mph - N/A   Clear
3:15 AM 63.0 °F 43.7 °F 49% 29.83 in 10.0 mi South 8.1 mph - N/A   Clear
3:35 AM 62.2 °F 43.9 °F 51% 29.82 in 10.0 mi South 5.8 mph - N/A   Clear
3:55 AM 61.2 °F 44.2 °F 54% 29.82 in 10.0 mi South 5.8 mph - N/A   Clear
4:15 AM 61.0 °F 44.2 °F 54% 29.82 in 10.0 mi South 5.8 mph - N/A   Clear
4:35 AM 60.4 °F 44.6 °F 56% 29.82 in 10.0 mi South 5.8 mph - N/A   Clear
4:55 AM 60.3 °F 44.6 °F 56% 29.82 in 10.0 mi South 6.9 mph - N/A   Clear
5:15 AM 60.1 °F 44.4 °F 56% 29.82 in 10.0 mi South 5.8 mph - N/A   Clear
5:35 AM 59.7 °F 44.6 °F 57% 29.82 in 10.0 mi South 5.8 mph - N/A   Clear
5:55 AM 59.2 °F 44.6 °F 58% 29.83 in 10.0 mi South 4.6 mph - N/A   Clear
6:15 AM 59.9 °F 44.6 °F 57% 29.82 in 10.0 mi South 6.9 mph - N/A   Clear
6:35 AM 59.9 °F 44.6 °F 57% 29.83 in 10.0 mi South 5.8 mph - N/A   Clear
6:55 AM 60.3 °F 44.6 °F 56% 29.82 in 10.0 mi South 6.9 mph - N/A   Clear
7:15 AM 60.8 °F 44.6 °F 55% 29.82 in 10.0 mi South 8.1 mph - N/A   Clear
7:35 AM 60.8 °F 44.6 °F 55% 29.82 in 10.0 mi South 8.1 mph - N/A   Clear
7:55 AM 61.0 °F 44.8 °F 55% 29.82 in 10.0 mi South 10.4 mph - N/A   Clear
8:15 AM 62.1 °F 45.1 °F 54% 29.83 in 10.0 mi South 10.4 mph 17.3 mph N/A   Clear
8:35 AM 63.7 °F 45.3 °F 51% 29.83 in 10.0 mi South 12.7 mph - N/A   Clear
8:55 AM 65.3 °F 45.5 °F 49% 29.84 in 10.0 mi South 11.5 mph - N/A   Clear
9:15 AM 67.3 °F 46.0 °F 46% 29.84 in 10.0 mi SSW 12.7 mph - N/A   Clear
9:35 AM 69.3 °F 46.6 °F 44% 29.85 in 10.0 mi SSW 11.5 mph 17.3 mph N/A   Clear
9:55 AM 71.4 °F 47.8 °F 43% 29.86 in 10.0 mi SW 12.7 mph - N/A   Clear
10:15 AM 73.8 °F 49.3 °F 42% 29.87 in 10.0 mi WSW 11.5 mph - N/A   Clear
10:35 AM 74.5 °F 50.0 °F 42% 29.87 in 10.0 mi West 9.2 mph - N/A   Clear
10:55 AM 76.3 °F 51.3 °F 41% 29.87 in 10.0 mi West 9.2 mph - N/A   Clear
11:15 AM 77.0 °F 51.1 °F 40% 29.87 in 10.0 mi West 10.4 mph - N/A   Clear
11:35 AM 77.2 °F 51.3 °F 40% 29.88 in 10.0 mi NW 9.2 mph - N/A   Clear
11:55 AM 78.1 °F 51.3 °F 39% 29.88 in 10.0 mi WNW 6.9 mph - N/A   Clear
12:15 PM 78.3 °F 50.5 °F 38% 29.89 in 10.0 mi NW 8.1 mph - N/A   Clear
12:35 PM 80.1 °F 48.4 °F 33% 29.88 in 10.0 mi NW 9.2 mph - N/A   Clear
1:15 PM 82.4 °F 45.7 °F 27% 29.87 in 10.0 mi North 8.1 mph 16.1 mph N/A   Clear
1:35 PM 83.8 °F 43.5 °F 24% 29.87 in 10.0 mi NW 11.5 mph - N/A   Clear
1:55 PM 84.2 °F 43.2 °F 24% 29.86 in 10.0 mi NW 10.4 mph - N/A   Clear
2:15 PM 84.6 °F 43.5 °F 24% 29.85 in 10.0 mi WNW 10.4 mph 17.3 mph N/A   Clear
2:35 PM 85.1 °F 42.3 °F 22% 29.85 in 10.0 mi West 8.1 mph 16.1 mph N/A   Clear
2:55 PM 85.6 °F 42.6 °F 22% 29.84 in 10.0 mi NNW 15.0 mph 18.4 mph N/A   Clear
3:15 PM 85.8 °F 42.4 °F 22% 29.84 in 10.0 mi WNW 5.8 mph 17.3 mph N/A   Clear
3:35 PM 85.8 °F 39.9 °F 20% 29.84 in 10.0 mi NW 10.4 mph - N/A   Clear
3:55 PM 86.9 °F 37.4 °F 17% 29.84 in 10.0 mi WNW 9.2 mph 18.4 mph N/A   Clear
4:15 PM 87.3 °F 36.0 °F 16% 29.84 in 10.0 mi NW 6.9 mph 17.3 mph N/A   Clear
4:35 PM 87.1 °F 35.2 °F 16% 29.84 in 10.0 mi WNW 9.2 mph - N/A   Clear
4:55 PM 87.6 °F 36.7 °F 16% 29.84 in 10.0 mi West 5.8 mph - N/A   Clear
5:15 PM 88.0 °F 36.1 °F 16% 29.84 in 10.0 mi West 11.5 mph 18.4 mph N/A   Clear
5:35 PM 87.6 °F 36.1 °F 16% 29.84 in 10.0 mi NW 8.1 mph - N/A   Clear
5:55 PM 87.3 °F 35.6 °F 16% 29.84 in 10.0 mi West 9.2 mph - N/A   Clear
6:15 PM 87.1 °F 35.4 °F 16% 29.84 in 10.0 mi West 8.1 mph - N/A   Clear
6:35 PM 86.5 °F 35.6 °F 16% 29.84 in 10.0 mi North - - N/A   Clear
6:55 PM 86.0 °F 36.5 °F 17% 29.85 in 10.0 mi WNW 9.2 mph - N/A   Clear
7:15 PM 85.1 °F 37.2 °F 18% 29.85 in 10.0 mi WNW 4.6 mph - N/A   Clear
7:35 PM 82.9 °F 38.1 °F 20% 29.86 in 10.0 mi WNW 4.6 mph - N/A   Clear
7:55 PM 80.6 °F 38.1 °F 22% 29.87 in 10.0 mi NW 5.8 mph - N/A   Clear
8:15 PM 78.1 °F 39.4 °F 25% 29.87 in 10.0 mi NNW 3.5 mph - N/A   Clear
8:35 PM 75.7 °F 39.4 °F 27% 29.88 in 10.0 mi NW 4.6 mph - N/A   Clear
8:55 PM 74.7 °F 38.8 °F 27% 29.89 in 10.0 mi NNW 4.6 mph - N/A   Clear
9:15 PM 73.4 °F 36.7 °F 26% 29.91 in 10.0 mi NNW 5.8 mph - N/A   Clear
9:35 PM 73.9 °F 34.0 °F 23% 29.91 in 10.0 mi NW 6.9 mph - N/A   Clear
9:55 PM 73.6 °F 33.1 °F 23% 29.92 in 10.0 mi NNW 5.8 mph - N/A   Clear
10:15 PM 75.7 °F 31.5 °F 20% 29.93 in 10.0 mi NNW 10.4 mph - N/A   Clear
10:35 PM 74.1 °F 33.4 °F 23% 29.94 in 10.0 mi WNW 5.8 mph - N/A   Clear
10:55 PM 72.0 °F 34.3 °F 25% 29.95 in 10.0 mi NW 8.1 mph - N/A   Clear
11:15 PM 70.0 °F 35.6 °F 28% 29.96 in 10.0 mi NNW 6.9 mph - N/A   Clear
11:35 PM 69.1 °F 36.0 °F 30% 29.96 in 10.0 mi NNW 5.8 mph - N/A   Clear
11:55 PM 68.7 °F 35.6 °F 30% 29.96 in 10.0 mi NW 5.8 mph - N/A   Clear